sat.trackr.live / text

‹ back to catalog

STARLINK-35616

NORAD 66255 · 2025-245X

PAYLOAD ACTIVE UNKNOWN

§ Identity

Operator
Country
US
Launch date
2025-10-29
Launch site
AFETR
Launch vehicle
Mass (kg)
RCS (m²)

Purposes: comms

External: N2YO · Heavens-Above · Gunter

§ Orbital elements

Epoch: 2026-09-20T22:05:56.845248Z

Period
93.85 min
Inclination
53.1583°
Eccentricity
0.0000946
Mean motion
15.34403427 rev/d
Perigee alt
462.0 km
Apogee alt
463.3 km
Semi-major
6,840.8 km
B*
7.2437e-4
RAAN
95.9036°
Arg perigee
94.0579°
Mean anomaly
266.0532°
Rev number
5,116

§ Raw data

STARLINK-356161 66255U 25245X   26263.92079682  .00024179  00000+0  72437-3 0  99922 66255  53.1583  95.9036 0000946  94.0579 266.0532 15.34403427 51166

JSON: /api/v1/satellites/66255 · /tle

For live sub-satellite position, see the globe view (requires WebGL).

§ Visibility from observer

Set your observer location to see the next 7 days of passes ≥ 10°. The values pass through the URL so the page stays shareable.

No JS? Fill the form by hand. The geolocation button needs JavaScript.